Wind_Speed
63 63 60 58 56 53 51 46 43 38 32 26 22 18 15 13 12 11 11 11 12 13
63 64 63 60 56 51 51 47 42 38 32 28 24 19 16 14 13 12 11 12 13 14
62 62 61 60 58 52 50 47 43 38 34 29 25 21 17 15 14 13 12 13 13 14
56 59 59 60 56 52 50 46 43 39 34 30 26 22 18 16 15 14 13 13 14 14
52 56 56 57 54 52 49 44 43 39 34 31 27 22 19 16 15 14 14 14 14 15
51 53 54 53 52 50 46 44 44 39 36 31 26 22 19 17 15 15 14 14 14 15
50 53 52 52 50 47 45 46 43 40 35 30 26 22 19 17 15 15 14 14 14 15
47 47 49 49 47 46 47 45 42 39 35 31 26 21 18 16 15 14 14 13 13 15
41 46 47 46 48 48 48 45 41 38 34 29 24 20 17 16 15 13 12 12 13 15
41 43 44 46 49 49 47 45 42 37 31 26 22 19 17 15 14 12 11 12 13 15
39 41 43 46 49 50 48 44 40 35 29 24 21 17 15 13 12 10 11 12 13 15
39 43 47 50 51 49 45 41 36 30 27 22 19 16 13 12 10 10 11 12 12 14
40 44 48 50 49 46 42 37 33 28 23 20 17 14 12 10 10 10 10 10 12 13
39 43 47 49 47 43 38 33 29 26 23 18 15 12 11 11 10 8 9 9 11 13
Wind_Direction
220 219 221 223 220 217 217 216 215 216 217 219 225 230 241 251 264 275 281 287 292 296
219 217 221 223 222 220 218 217 217 216 216 219 224 229 239 249 261 270 277 284 288 293
216 215 219 222 221 218 219 218 216 215 215 218 224 229 236 248 258 266 272 277 284 292
210 214 215 221 221 219 217 217 214 214 215 219 223 228 235 246 257 263 268 275 283 287
206 210 211 217 219 217 216 214 212 212 214 218 222 228 234 243 255 260 266 273 280 286
204 207 211 214 216 214 211 210 208 211 214 217 222 227 235 242 250 257 264 271 279 283
203 208 211 214 213 208 207 206 206 208 212 216 221 226 234 242 247 256 263 270 277 284
208 210 211 212 207 204 203 203 206 208 210 214 217 224 232 240 246 252 261 270 280 286
205 209 210 206 200 198 198 201 203 206 211 212 215 222 231 238 243 250 259 271 281 290
205 207 205 200 197 195 196 197 200 202 205 207 212 219 226 234 240 247 260 273 284 292
205 203 199 196 194 192 193 194 197 198 201 204 208 215 221 232 238 249 263 276 288 295
200 197 194 192 191 191 190 192 194 196 197 199 204 208 216 219 232 247 262 281 291 298
197 195 192 191 188 188 190 189 189 188 189 192 197 203 205 217 230 249 272 286 299 308
194 193 192 187 186 185 184 184 182 183 182 185 188 197 209 218 234 260 281 300 304 307
Height
1430 1437 1442 1450 1458 1465 1474 1481 1487 1494 1500 1504 1506 1507 1508 1508 1508 1508 1507 1507 1507 1507
1419 1427 1431 1441 1452 1460 1469 1476 1482 1489 1495 1498 1501 1501 1504 1504 1504 1503 1503 1503 1503 1503
1409 1418 1425 1434 1443 1453 1462 1469 1476 1484 1489 1492 1496 1497 1498 1499 1499 1499 1498 1498 1498 1498
1400 1409 1418 1426 1435 1447 1455 1463 1471 1478 1483 1487 1490 1492 1492 1493 1495 1495 1494 1493 1492 1492
1394 1402 1409 1418 1428 1440 1450 1459 1466 1472 1477 1481 1485 1487 1488 1489 1490 1491 1490 1489 1488 1488
1387 1394 1402 1411 1422 1435 1444 1453 1459 1465 1471 1475 1479 1482 1483 1483 1484 1485 1485 1485 1484 1484
1380 1387 1396 1405 1417 1428 1438 1445 1452 1459 1465 1470 1474 1476 1478 1479 1480 1480 1480 1480 1479 1480
1379 1385 1391 1400 1412 1422 1431 1440 1447 1453 1459 1464 1468 1470 1473 1474 1475 1476 1476 1476 1476 1475
1377 1382 1388 1397 1406 1415 1425 1433 1442 1449 1454 1459 1462 1465 1467 1469 1470 1471 1471 1472 1472 1471
1372 1378 1386 1394 1402 1411 1419 1428 1436 1444 1450 1454 1457 1460 1463 1465 1466 1467 1467 1468 1468 1467
1368 1376 1384 1392 1400 1407 1416 1425 1433 1440 1445 1449 1453 1456 1459 1460 1462 1463 1464 1464 1463 1463
1365 1372 1379 1387 1396 1406 1415 1423 1430 1437 1441 1445 1448 1452 1454 1457 1458 1459 1460 1459 1459 1458
1363 1371 1378 1386 1396 1405 1414 1420 1427 1433 1438 1442 1445 1448 1451 1452 1454 1455 1456 1456 1455 1453
1363 1371 1379 1387 1395 1403 1411 1419 1425 1431 1434 1438 1442 1444 1446 1449 1451 1452 1452 1452 1450 1449